This demonstration page uses our WeatherBlox Daily Observations layout. Learn more.

Left ArrowRight Arrow

Hourly Observations for May 2, 2020

Temp ( °F °C ) Dew Point ( °F °C ) Humidity (%) Winds ( mph kmh ) Pressure ( in mb ) Visibility ( mi km ) Precip ( " mm )
12:53 am 00:53 Clear 71 21.7 43 6.1 36 36 ESE 9 15 29.76 1008 10 16 0.00 0.00
1:53 am 01:53 Clear 69 20.6 44 6.7 41 41 SE 8 13 29.77 1008 10 16 0.00 0.00
2:53 am 02:53 Clear 69 20.6 44 6.7 41 41 SE 10 17 29.76 1008 10 16 0.00 0.00
3:53 am 03:53 Clear 67 19.4 45 7.2 45 45 SE 8 13 29.76 1008 10 16 0.00 0.00
4:53 am 04:53 Clear 66 18.9 45 7.2 47 47 ESE 3 6 29.77 1008 10 16 0.00 0.00
5:53 am 05:53 Clear 63 17.2 45 7.2 52 52 ESE 6 9 29.79 1009 10 16 0.00 0.00
6:53 am 06:53 Clear 62 16.7 45 7.2 54 54 E 3 6 29.81 1009 10 16 0.00 0.00
7:53 am 07:53 Sunny 64 17.8 45 7.2 50 50 Calm 29.89 1012 10 16 0.00 0.00
8:53 am 08:53 Sunny 72 22.2 47 8.3 41 41 Calm 29.86 1011 10 16 0.00 0.00
9:53 am 09:53 Sunny 81 27.2 45 7.2 28 28 SSW 3 6 29.86 1011 10 16 0.00 0.00
10:53 am 10:53 Sunny 89 31.7 42 5.6 19 19 W 6 9 29.85 1011 10 16 0.00 0.00
11:53 am 11:53 Sunny 96 35.6 34 1.1 11 11 NW 13 20 29.84 1010 10 16 0.00 0.00
12:53 pm 12:53 Sunny 98 36.7 32 0 10 10 W 10 17 29.83 1010 10 16 0.00 0.00
1:53 pm 13:53 Sunny 100 37.8 31 -0.6 9 9 NW 12 19 29.80 1009 10 16 0.00 0.00
2:53 pm 14:53 Sunny 100 37.8 33 0.6 10 10 VRB 5 7 29.78 1008 10 16 0.00 0.00
3:53 pm 15:53 Sunny 102 38.9 34 1.1 9 9 W 20 31 29.75 1007 10 16 0.00 0.00
4:53 pm 16:53 Sunny 102 38.9 35 1.7 10 10 W 13 20 29.72 1007 10 16 0.00 0.00
5:53 pm 17:53 Sunny 100 37.8 35 1.7 10 10 SW 12 19 29.71 1006 10 16 0.00 0.00
6:53 pm 18:53 Sunny 101 38.3 35 1.7 10 10 W 14 22 29.70 1006 10 16 0.00 0.00
7:53 pm 19:53 Sunny 94 34.4 41 5 16 16 S 22 35 29.72 1007 10 16 0.00 0.00
8:53 pm 20:53 Clear 91 32.8 40 4.4 17 17 SSW 14 22 29.73 1007 10 16 0.00 0.00
9:53 pm 21:53 Clear 86 30 41 5 20 20 S 9 15 29.76 1008 10 16 0.00 0.00
10:53 pm 22:53 Clear 82 27.8 42 5.6 24 24 S 7 11 29.78 1009 10 16 0.00 0.00
11:53 pm 23:53 Clear 74 23.3 42 5.6 32 32 ESE 3 6 29.79 1009 10 16 0.00 0.00

Powered by AerisWeather